Change the Weather History Date:

Saturday, February 16, 2013

  Actual Average Record
Temperature  
Mean Temperature 45 °F 47 °F  
Max Temperature 52 °F 54 °F 74 °F (1990)
Min Temperature 37 °F 40 °F 18 °F (1905)
Degree Days  
Heating Degree Days 20 18  
Month to date heating degree days 254 301  
Since 1 July heating degree days 1515 1714  
Cooling Degree Days 0 0  
Month to date cooling degree days 0 0  
Year to date cooling degree days 0 0  
Moisture  
Dew Point 40 °F    
Average Humidity 82    
Maximum Humidity 92    
Minimum Humidity 71    
Precipitation  
Precipitation 0.18 in 0.15 in 1.68 in (1909)
Month to date precipitation 4.27 2.31  
Year to date precipitation 6.44 7.55  
Snow  
Snow 0.00 in - - ()
Month to date snowfall 0.0  
Since 1 July snowfall 0.0  
Snow Depth 0.00 in    
Sea Level Pressure  
Sea Level Pressure 29.79 in    
Wind  
Wind Speed 9 mph (North)    
Max Wind Speed 20 mph    
Max Gust Speed 33 mph    
Visibility 9 miles    
Events Rain    
T = Trace of Precipitation, MM = Missing Value Source: NWS Daily Summary

Daily Weather History Graph

Daily Weather History Graph

Search for Another Location

Airport or City:

Trip Planner

Search our weather history database for the weather conditions in past years. The results will help you decide how hot, cold, wet, or windy it might be!

Date:

Astronomy

Feb. 16, 2013 Rise Set
Actual Time 6:47 AM EST 5:46 PM EST
Civil Twilight 6:21 AM EST 6:12 PM EST
Nautical Twilight 5:51 AM EST 6:41 PM EST
Astronomical Twilight 5:22 AM EST 7:11 PM EST
Moon 10:14 AM EST (2/16) No Moon Set
Length of Visible Light 11h 50m
Length of Day
10h 58m
Waxing Crescent, 39% of the Moon is Illuminated
Feb 16
Waxing Crescent
Feb 17
First Quarter
Feb 25
Full
Mar 4
Last Quarter
Mar 11
New

Hourly Weather History & Observations

Time (EST) Temp. Windchill Dew Point Humidity Pressure Visibility Wind Dir Wind Speed Gust Speed Precip Events Conditions
12:51 AM 44.1 °F 41.5 °F 41.0 °F 89% 29.95 in 10.0 mi NNW 4.6 mph - N/A   Clear
1:51 AM 39.9 °F 37.8 °F 37.9 °F 93% 29.92 in 10.0 mi NNW 3.5 mph - N/A   Clear
2:51 AM 43.0 °F 40.3 °F 39.9 °F 89% 29.91 in 10.0 mi NW 4.6 mph - N/A   Clear
3:51 AM 45.0 °F 43.5 °F 39.9 °F 82% 29.90 in 10.0 mi NW 3.5 mph - N/A   Clear
4:51 AM 42.1 °F 40.2 °F 39.0 °F 89% 29.89 in 10.0 mi NW 3.5 mph - N/A   Clear
5:51 AM 46.9 °F - 42.1 °F 83% 29.89 in 10.0 mi Variable 6.9 mph - N/A   Clear
6:51 AM 46.0 °F 41.9 °F 41.0 °F 83% 29.88 in 10.0 mi NNE 8.1 mph - N/A   Clear
7:47 AM 44.6 °F 38.8 °F 42.8 °F 93% 29.89 in 10.0 mi NNE 11.5 mph 19.6 mph N/A   Partly Cloudy
7:51 AM 45.0 °F 39.3 °F 41.0 °F 86% 29.88 in 10.0 mi NNE 11.5 mph 19.6 mph N/A   Clear
8:51 AM 48.0 °F - 42.1 °F 80% 29.87 in 10.0 mi NE 9.2 mph 18.4 mph N/A   Clear
9:51 AM 50.0 °F - 42.1 °F 74% 29.85 in 10.0 mi NE 8.1 mph 16.1 mph N/A   Clear
10:51 AM 51.1 °F - 43.0 °F 74% 29.85 in 10.0 mi NE 10.4 mph - N/A   Clear
11:51 AM 50.0 °F - 43.0 °F 77% 29.82 in 10.0 mi Variable 6.9 mph 16.1 mph N/A   Clear
12:51 PM 51.1 °F - 42.1 °F 71% 29.78 in 10.0 mi NNE 10.4 mph 20.7 mph N/A   Clear
1:37 PM 50.0 °F - 41.0 °F 71% 29.77 in 10.0 mi NNE 10.4 mph 21.9 mph N/A   Mostly Cloudy
1:51 PM 50.0 °F - 41.0 °F 71% 29.76 in 10.0 mi NNE 11.5 mph 21.9 mph N/A   Overcast
2:51 PM 48.0 °F - 41.0 °F 77% 29.72 in 10.0 mi NNE 10.4 mph 20.7 mph N/A   Overcast
3:51 PM 46.0 °F 41.4 °F 39.9 °F 79% 29.70 in 10.0 mi NNE 9.2 mph 20.7 mph N/A   Overcast
4:51 PM 45.0 °F 39.7 °F 39.9 °F 82% 29.68 in 10.0 mi NNE 10.4 mph 20.7 mph N/A   Overcast
5:51 PM 45.0 °F 38.5 °F 39.9 °F 82% 29.64 in 9.0 mi NNE 13.8 mph 19.6 mph N/A   Overcast
6:51 PM 44.1 °F 37.7 °F 39.0 °F 82% 29.66 in 10.0 mi North 12.7 mph 24.2 mph N/A   Overcast
7:12 PM 42.8 °F 35.4 °F 39.2 °F 87% 29.69 in 7.0 mi NNW 15.0 mph 25.3 mph 0.01 in Rain Light Rain
7:28 PM 39.2 °F 29.8 °F 37.4 °F 93% 29.71 in 2.5 mi NW 18.4 mph 27.6 mph 0.09 in Rain Heavy Rain
7:37 PM 39.2 °F 30.5 °F 37.4 °F 93% 29.71 in 4.0 mi NNW 16.1 mph 31.1 mph 0.11 in Rain Rain
7:51 PM 37.9 °F 29.6 °F 36.0 °F 93% 29.70 in 8.0 mi NNW 13.8 mph 29.9 mph 0.13 in Rain Light Rain
8:51 PM 37.9 °F 30.0 °F 36.0 °F 93% 29.72 in 10.0 mi NNW 12.7 mph 24.2 mph 0.02 in Rain Light Rain
9:51 PM 37.9 °F 31.5 °F 35.1 °F 89% 29.72 in 10.0 mi North 9.2 mph 25.3 mph 0.02 in Rain Light Rain
10:51 PM 37.9 °F 30.5 °F 36.0 °F 93% 29.72 in 10.0 mi NNW 11.5 mph 26.5 mph 0.00 in   Overcast
11:51 PM 37.9 °F 28.5 °F 35.1 °F 89% 29.75 in 10.0 mi NW 17.3 mph 26.5 mph 0.01 in Rain Light Rain